Regional Weather Roundup
Issued by NWS

Home | Current Version | Previous Version | Graphics & Text | Print | Product List | Glossary Off
Versions: 1 2 3 4 5 6 7 8 9 10 11 12 13 14 15 16 17 18 19 20 21 22 23 24 25 26 27 28 29 30 31 32 33 34 35 36 37 38 39 40 41 42 43 44 45 46 47 48 49 50

000
ASUS43 KMKX 112200
RWRWI

WISCONSIN REGIONAL WEATHER ROUNDUP
NATIONAL WEATHER SERVICE MILWAUKEE/SULLIVAN WI
400 PM CST THU FEB 11 2016

NOTE: "FAIR" INDICATES FEW OR NO CLOUDS BELOW 12,000 FEET WITH NO
SIGNIFICANT WEATHER AND/OR OBSTRUCTIONS TO VISIBILITY.

WIZ001-002-006>008-014>016-023>028-112300-
NORTHWEST WISCONSIN

CITY           SKY/WX    TMP DP  RH WIND       PRES   REMARKS
SUPERIOR ARPT  CLOUDY    16  -3  42 W10       30.19F WCI   3
ASHLAND        CLOUDY    14  -4  44 SW9       30.16F WCI   2
HAYWARD        CLOUDY    13  -7  40 W7        30.15F WCI   3
SIREN          CLOUDY    14  -4  44 SW9       30.20F WCI   2
CUMBERLAND     CLOUDY    12  -6  44 SW10      30.17F WCI  -1
RICE LAKE      CLOUDY    14  -6  41 CALM      30.20F
CHETEK         CLOUDY    14  -6  41 W3        30.19F
LADYSMITH      CLOUDY    15  -6  39 SW8       30.18S WCI   4
EAU CLAIRE     NOT AVBL
MENOMONIE      CLOUDY    19  -3  38 S5        30.22F WCI  12
NEW RICHMOND   CLOUDY    16  -1  48 SW10      30.21F WCI   3
OSCEOLA        CLOUDY    17   1  48 W6        30.25S WCI   9
$$

WIZ003>005-009-010-017-018-112300-
NORTH CENTRAL WISCONSIN

CITY           SKY/WX    TMP DP  RH WIND       PRES   REMARKS
MANITOWISH WTR CLOUDY    13  -4  47 W8        30.09F WCI   1
ARBOR VITAE    MOSUNNY   17  -1  45 W6        30.10S WCI   8
WOODRUFF       MOSUNNY   17  -1  45 W6        30.10S WCI   8
RHINELANDER    PTSUNNY   14  -7  38 W12       30.10F WCI   0
EAGLE RIVER    SUNNY     15  -6  40 W8        30.08F WCI   3
LAND O LAKES   MOSUNNY   15  -1  48 SW8       30.09S WCI   5
PHILLIPS       CLOUDY    14  -6  40 SW6       30.12F WCI   5
TOMAHAWK       CLOUDY    15  -7  37 W7        30.13S WCI   5
MEDFORD        CLOUDY    11  -4  51 SW7       30.15S WCI   1
MERRILL        MOSUNNY   15  -1  47 SW5       30.15F WCI   8
$$

WIZ029-030-035-036-043>047-112300-
CENTRAL WISCONSIN

CITY           SKY/WX    TMP DP  RH WIND       PRES   REMARKS
WAUSAU         SUNNY     14  -5  42 W8        30.16F WCI   3
MOSINEE        SUNNY     12  -2  52 W7        30.18S WCI   2
MARSHFIELD     PTSUNNY   15  -5  40 W6        30.17F WCI   6
STEVENS POINT  SUNNY     14  -6  40 W6        30.20S WCI   5
WAUPACA        SUNNY     21  -5  32 W6        30.22S WCI  13
WAUTOMA        NOT AVBL
WISC RAPIDS    MOSUNNY   17  -6  35 W12       30.22S WCI   4
CAMP DOUGLAS   NOT AVBL
$$

WIZ011>013-019>022-031-037>040-048>050-112300-
NORTHEAST WISCONSIN

CITY           SKY/WX    TMP DP  RH WIND       PRES   REMARKS
ANTIGO         SUNNY     14  -3  47 W9        30.12F WCI   2
SHAWANO        SUNNY     21  -2  36 SW6       30.20R WCI  14
OCONTO         SUNNY     19   0  44 SW12      30.19S WCI   6
STURGEON BAY   SUNNY     16   0  48 SW9       30.20S WCI   4
GREEN BAY      SUNNY     17  -1  45 W12       30.21S WCI   4
MANITOWOC      NOT AVBL
APPLETON       MOSUNNY   18  -4  38 W12       30.19F WCI   5
CLINTONVILLE   SUNNY     19  -6  32 W9        30.20S WCI   9
OSHKOSH        SUNNY     17  -1  45 VRB5      30.22S WCI  10
$$

WIZ032>034-041-042-053>061-112300-
SOUTHWEST WISCONSIN

CITY           SKY/WX    TMP DP  RH WIND       PRES   REMARKS
LA CROSSE      CLOUDY    18   0  45 S9        30.25F WCI   7
SPARTA         SUNNY     19  -4  36 W3        30.25S
VIROQUA        MOSUNNY   17  -1  45 CALM      30.21S
BOSCOBEL       CLOUDY    20   1  43 SW7       30.27F WCI  11
PRAIRIE DU CHI CLOUDY    19  -3  38 W5        30.28F WCI  12
PLATTEVILLE    SUNNY     17   0  46 CALM      30.25F
$$

WIZ056-057-062-063-064-067-068-112300-
SOUTH CENTRAL WISCONSIN

CITY           SKY/WX    TMP DP  RH WIND       PRES   REMARKS
REEDSBURG      SUNNY     18  -4  38 SW10      30.24S WCI   6
BARABOO/DELLS  SUNNY     17  -4  38 SW10      30.23S WCI   5
LONE ROCK      NOT AVBL
MINERAL POINT  CLOUDY    19   0  42 W6        30.24S WCI  11
MADISON        MOSUNNY   18  -5  36 VRB5      30.25S WCI  11
MIDDLETON      SUNNY     21  -3  33 W5        30.25S WCI  15
WATERTOWN      SUNNY     18  -1  43 W6        30.25S WCI   9
MONROE         MOSUNNY   21   0  39 W8        30.24S WCI  12
JANESVILLE     MOSUNNY   21   1  42 W6        30.26F WCI  14
$$

WIZ051-052-058>065-066-070>072-112300-
SOUTHEAST WISCONSIN

CITY           SKY/WX    TMP DP  RH WIND       PRES   REMARKS
MILWAUKEE      MOSUNNY   19  -2  39 W9        30.27R WCI   8
WAUKESHA       SUNNY     16   0  48 W10       30.26S WCI   3
MILWAUKEE/TIMM SUNNY     18  -2  41 W9        30.26F WCI   6
RACINE         SUNNY     19  -1  41 W9        30.28S WCI   8
BURLINGTON     SUNNY     17   0  45 W8        30.26S WCI   7
KENOSHA        SUNNY     19   3  49 W7        30.26S WCI  10
FOND DU LAC    SUNNY     16  -1  47 SW10      30.23S WCI   4
SHEBOYGAN      SUNNY     16   1  51 W9        30.23S WCI   4
WEST BEND      SUNNY     18   0  45 CALM      30.23S
JUNEAU         SUNNY     15   0  51 SW7       30.24F WCI   5
$$

LSZ147-162-112300-
LAKE SUPERIOR

STATION/POSITION TIME  TEMP    WIND        PRES    WAVE
                       AIR SEA DIR/SP/G            HT/PER
                 (UTC) (F)     (DEG/KT/KT) (MB)    (FT/S)
DEVILS ISLAND    2100   13     240/ 23/ 26 1022.6F
SAXON HARBOR     2040   16                 1021.3F
$$

LMZ867-665-643>646-112300-
LAKE MICHIGAN

STATION/POSITION TIME  TEMP    WIND        PRES    WAVE
                       AIR SEA DIR/SP/G            HT/PER
                 (UTC) (F)     (DEG/KT/KT) (MB)    (FT/S)
CHAMBERS ISLAND  2100   17     180/  9/ 13 1022.0F
ALGOMA LAKESHORE 2041          250/  7/ 12   N/A
KEWAUNEE LAKESHO 2100   15     280/ 11/ 14 1022.3F
SHEBOYGAN LAKESH 2100   16     280/  9/ 11 1025.6F
PORT WASHINGTON  2140   19     250/  7/ 13 1025.4S
MILWAUKEE LAKESH 2110   18     310/  8/ 12   N/A
KENOSHA   LAKESH 2100   19     290/  7/ 12 1025.1F
$$

TC  - TEMPERATURE IN CELSIUS
VSB - VISIBILITY IN STATUTE MILES
WCI - WIND CHILL INDEX
HX  - HEAT INDEX




USA.gov is the U.S. government's official web portal to all federal, state and local government web resources and services.